Location: Unspecified
(58.7730°N, 5.8460°E)
Time: 13:21:05
(UTC+02:00)

Cosmos 1674 - Visible Passes

Search period start: 20 October 2014 00:00
Search period end: 29 October 2014 23:00
Orbit: 515 x 540 km, 82.5° (Epoch: 19 October)

Date Brightness Start Highest point End Pass type
(mag) Time Alt. Az. Time Alt. Az. Time Alt. Az.
20 Oct 6.5 05:53:52 10° E 05:55:06 11° ENE 05:56:21 10° ENE visible
20 Oct 3.2 07:26:21 10° S 07:30:17 68° E 07:34:16 10° NNE visible
21 Oct 6.5 05:43:01 10° E 05:43:50 11° ENE 05:44:38 10° ENE visible
21 Oct 3.3 07:15:03 10° S 07:18:58 63° E 07:22:56 10° NNE visible
22 Oct 3.5 07:03:45 10° S 07:07:38 59° E 07:11:35 10° NNE visible
23 Oct 3.6 06:52:26 10° S 06:56:18 55° E 07:00:13 10° NNE visible
24 Oct 3.7 06:41:06 10° S 06:44:57 51° E 06:48:50 10° NNE visible
25 Oct 3.9 06:29:46 10° S 06:33:35 47° E 06:37:26 10° NNE visible
26 Oct 4.0 05:18:26 10° SSE 05:22:13 44° E 05:26:01 10° NNE visible
26 Oct 3.7 06:54:51 10° SW 06:58:21 29° WNW 07:01:52 10° N visible
27 Oct 4.1 05:07:06 10° SSE 05:10:50 41° E 05:14:36 10° NNE visible
27 Oct 3.6 06:43:22 10° SW 06:46:55 31° WNW 06:50:30 10° N visible
28 Oct 4.2 04:55:45 10° SSE 04:59:26 38° E 05:03:09 10° NNE visible
28 Oct 3.5 06:31:52 10° SW 06:35:28 33° WNW 06:39:06 10° N visible
29 Oct 4.3 04:44:24 10° SSE 04:48:02 36° E 04:51:41 10° NNE visible
29 Oct 3.4 06:20:22 10° SW 06:24:01 35° WNW 06:27:42 10° N visible
